N112 TNCS-TFFJ

Flight info

Callsign N112
Flight time 0h 12m
Altitude 5000
Route DCT
Aircraft C208/L-VGD/A

Departure

Time 2026-05-04 20:54
Airport Juancho E. Yrausquin Airport (TNCS)

Arrival

Time 2026-05-04 21:06
Airport St. Jean Airport (TFFJ)
Time Latitude Longitude Altitude Speed Heading
2026-05-04 20:51 17.64579 -63.22161 142 ft 0 kts 112°
2026-05-04 20:51 17.64566 -63.22126 140 ft 23 kts 111°
2026-05-04 20:52 17.64440 -63.21826 107 ft 57 kts 103°
2026-05-04 20:52 17.64493 -63.22033 132 ft 0 kts 21°
2026-05-04 20:52 17.64579 -63.22161 143 ft 0 kts 112°
2026-05-04 20:53 17.64547 -63.22078 133 ft 35 kts 112°
2026-05-04 20:53 17.64402 -63.21695 136 ft 72 kts 108°
2026-05-04 20:53 17.64392 -63.21150 282 ft 80 kts 69°
2026-05-04 20:53 17.64875 -63.20814 436 ft 100 kts
2026-05-04 20:54 17.65559 -63.20945 747 ft 93 kts 345°
2026-05-04 20:54 17.66099 -63.21257 884 ft 99 kts 335°
2026-05-04 20:54 17.66818 -63.21361 919 ft 106 kts 17°
2026-05-04 20:54 17.67485 -63.21053 1086 ft 105 kts 43°
2026-05-04 20:55 17.68096 -63.20647 1364 ft 103 kts 39°
2026-05-04 20:55 17.68740 -63.20293 1601 ft 106 kts 32°
2026-05-04 20:55 17.69280 -63.19834 1845 ft 96 kts 65°
2026-05-04 20:55 17.69642 -63.19272 2081 ft 92 kts 62°
2026-05-04 20:56 17.69986 -63.18725 2310 ft 89 kts 64°
2026-05-04 20:56 17.70331 -63.18162 2502 ft 94 kts 65°
2026-05-04 20:56 17.70686 -63.17573 2700 ft 97 kts 65°
2026-05-04 20:56 17.71045 -63.16973 2907 ft 98 kts 64°
2026-05-04 20:57 17.71410 -63.16356 3079 ft 104 kts 64°
2026-05-04 20:57 17.71837 -63.15630 3051 ft 127 kts 64°
2026-05-04 20:57 17.72330 -63.14794 3050 ft 141 kts 64°
2026-05-04 20:57 17.72860 -63.13891 3043 ft 148 kts 63°
2026-05-04 20:58 17.73399 -63.12980 3043 ft 150 kts 63°
2026-05-04 20:58 17.73950 -63.12047 3042 ft 152 kts 64°
2026-05-04 20:58 17.74510 -63.11098 3039 ft 154 kts 63°
2026-05-04 20:58 17.75073 -63.10138 3039 ft 155 kts 65°
2026-05-04 20:59 17.75627 -63.09165 3038 ft 156 kts 64°
2026-05-04 20:59 17.76209 -63.08198 3037 ft 157 kts 63°
2026-05-04 20:59 17.76793 -63.07228 3036 ft 158 kts 63°
2026-05-04 20:59 17.77371 -63.06251 3035 ft 158 kts 64°
2026-05-04 21:00 17.77949 -63.05271 3032 ft 158 kts 63°
2026-05-04 21:00 17.78517 -63.04309 3030 ft 157 kts 63°
2026-05-04 21:00 17.79088 -63.03340 3028 ft 156 kts 63°
2026-05-04 21:00 17.79660 -63.02370 3025 ft 157 kts 63°
2026-05-04 21:01 17.80233 -63.01397 3026 ft 157 kts 63°
2026-05-04 21:01 17.80811 -63.00420 3027 ft 158 kts 64°
2026-05-04 21:01 17.81387 -62.99440 3028 ft 158 kts 64°
2026-05-04 21:01 17.81968 -62.98452 3030 ft 160 kts 63°
2026-05-04 21:02 17.82554 -62.97463 3029 ft 159 kts 63°
2026-05-04 21:02 17.83135 -62.96476 3031 ft 159 kts 64°
2026-05-04 21:02 17.83709 -62.95501 3030 ft 159 kts 63°
2026-05-04 21:02 17.84330 -62.94548 2970 ft 156 kts 54°
2026-05-04 21:03 17.85133 -62.93747 2359 ft 168 kts 43°
2026-05-04 21:03 17.86094 -62.93051 1942 ft 162 kts 39°
2026-05-04 21:03 17.86932 -62.92341 1551 ft 147 kts 49°
2026-05-04 21:03 17.87572 -62.91612 1409 ft 123 kts 54°
2026-05-04 21:04 17.88109 -62.90973 1267 ft 114 kts 56°
2026-05-04 21:04 17.88574 -62.90292 1284 ft 115 kts 64°
2026-05-04 21:04 17.88924 -62.89532 1172 ft 117 kts 73°
2026-05-04 21:04 17.89245 -62.88772 1063 ft 114 kts 70°
2026-05-04 21:05 17.89569 -62.88012 880 ft 114 kts 70°
2026-05-04 21:05 17.89870 -62.87266 712 ft 107 kts 72°
2026-05-04 21:05 17.90085 -62.86581 608 ft 87 kts 77°
2026-05-04 21:05 17.90251 -62.86069 501 ft 68 kts 70°
2026-05-04 21:06 17.90402 -62.85599 428 ft 70 kts 85°
2026-05-04 21:06 17.90421 -62.85087 270 ft 71 kts 91°
2026-05-04 21:06 17.90434 -62.84582 52 ft 68 kts 85°
2026-05-04 21:06 17.90439 -62.84265 30 ft 29 kts 91°
2026-05-04 21:07 17.90442 -62.84204 27 ft 3 kts 304°
2026-05-04 21:07 17.90441 -62.84268 30 ft 15 kts 268°
2026-05-04 21:07 17.90437 -62.84420 38 ft 25 kts 269°
2026-05-04 21:07 17.90433 -62.84616 50 ft 14 kts 274°
2026-05-04 21:08 17.90460 -62.84656 56 ft 6 kts
2026-05-04 21:08 17.90472 -62.84632 52 ft 2 kts 168°
2026-05-04 21:08 17.90465 -62.84632 53 ft 0 kts 175°